Location: Jackson Park
(37.2862°N, 79.9123°W)
Time: 11:32:38
(UTC+00:00)

Vanguard 3 - Pass Details

Date: 12 May 2026
Orbit: 507 x 3204 km, 33.3° (Epoch: 11 June)

Event Time Altitude Azimuth Distance (km) Brightness Sun altitude
Rises 22:45:59 0° 271° (W) 7,147 13.6 16.8°
Reaches altitude 10° 22:50:58 10° 270° (W) 6,046 13.8 15.8°
Maximum altitude 23:09:18 74° 191° (S) 2,504 9.8 12.3°
Drops below altitude 10° 23:20:38 10° 108° (ESE) 3,956 10.1 10.1°
Sets 23:23:12 0° 107° (ESE) 4,649 10.3 9.6°
